Weather History for Fort Lewis, WA

Change the Weather History Date:

Tuesday, May 7, 2013

  Actual Average Record
Temperature  
Mean Temperature 59 °F -  
Max Temperature 67 °F 60 °F 76 °F (2007)
Min Temperature 51 °F 40 °F 32 °F (2002)
Degree Days  
Heating Degree Days 6    
Growing Degree Days 9 (Base 50)    
Moisture  
Dew Point 49 °F    
Average Humidity 76    
Maximum Humidity 91    
Minimum Humidity 56    
Precipitation  
Precipitation 0.00 in - - ()
Sea Level Pressure  
Sea Level Pressure 29.96 in    
Wind  
Wind Speed 7 mph (WSW)    
Max Wind Speed 10 mph    
Max Gust Speed -    
Visibility 10 miles    
Events      
Averages and records for this station are not official NWS values.
T = Trace of Precipitation, MM = Missing Value Source: NWS Daily Summary

Daily Weather History Graph

Daily Weather History Graph

Search for Another Location

Airport:

Trip Planner

Search our weather history database for the weather conditions in past years. The results will help you decide how hot, cold, wet, or windy it might be!

Date:

Astronomy

May. 07, 2013 Rise Set
Actual Time 5:44 AM PDT 8:29 PM PDT
Civil Twilight 5:10 AM PDT 9:04 PM PDT
Nautical Twilight 4:25 AM PDT 9:49 PM PDT
Astronomical Twilight 3:33 AM PDT 10:41 PM PDT
Moon 4:30 AM PDT (5/7) 6:28 PM PDT (5/7)
Length of Visible Light 15h 54m
Length of Day
14h 44m
Waning Crescent, 5% of the Moon is Illuminated
May 7
Waning Crescent
May 9
New
May 17
First Quarter
May 24
Full
May 31
Last Quarter

Hourly Weather History & Observations

Time (PDT) Temp. Dew Point Humidity Pressure Visibility Wind Dir Wind Speed Gust Speed Precip Events Conditions
12:58 AM 55.4 °F 48.2 °F 77% 29.87 in 10.0 mi West 9.2 mph - N/A   Clear
1:58 AM 52.2 °F 48.7 °F 88% 29.89 in 10.0 mi West 5.8 mph - N/A   Clear
2:33 AM 51.8 °F 48.2 °F 88% 29.89 in 10.0 mi West 6.9 mph - N/A   Mostly Cloudy
2:38 AM 51.8 °F 48.2 °F 88% 29.90 in 10.0 mi West 8.1 mph - N/A   Mostly Cloudy
2:58 AM 51.3 °F 48.7 °F 91% 29.92 in 10.0 mi West 8.1 mph - N/A   Overcast
3:58 AM 51.6 °F 48.6 °F 89% 29.94 in 10.0 mi WSW 4.6 mph - N/A   Overcast
4:08 AM 51.8 °F 48.2 °F 88% 29.93 in 10.0 mi SW 5.8 mph - N/A   Overcast
4:58 AM 51.8 °F 48.0 °F 87% 29.95 in 10.0 mi South 9.2 mph - N/A   Overcast
5:43 AM 51.8 °F 48.2 °F 88% 29.95 in 10.0 mi SSW 5.8 mph - N/A   Overcast
5:58 AM 52.3 °F 48.4 °F 86% 29.96 in 10.0 mi SW 6.9 mph - N/A   Overcast
6:58 AM 52.9 °F 48.2 °F 84% 29.97 in 10.0 mi South 8.1 mph - N/A   Overcast
7:58 AM 53.4 °F 48.2 °F 82% 29.98 in 10.0 mi SSW 6.9 mph - N/A   Overcast
8:58 AM 54.3 °F 47.7 °F 78% 29.99 in 10.0 mi SSW 8.1 mph - N/A   Overcast
9:56 AM 55.4 °F 48.2 °F 77% 29.98 in 10.0 mi SSW 5.8 mph - N/A   Overcast
10:56 AM 57.2 °F 48.2 °F 72% 29.98 in 10.0 mi Variable 4.6 mph - N/A   Overcast
11:34 AM 59.0 °F 48.2 °F 67% 29.98 in 10.0 mi South 4.6 mph - N/A   Overcast
11:56 AM 60.8 °F 50.0 °F 68% 29.98 in 10.0 mi Variable 3.5 mph - N/A   Overcast
12:20 PM 62.6 °F 50.0 °F 63% 29.97 in 10.0 mi Variable 5.8 mph - N/A   Scattered Clouds
12:58 PM 64.0 °F 49.6 °F 59% 29.98 in 10.0 mi Variable 4.6 mph - N/A   Clear
1:55 PM 66.2 °F 50.0 °F 56% 29.97 in 10.0 mi West 9.2 mph - N/A   Clear
3:05 PM 66.2 °F 51.8 °F 60% 29.97 in 10.0 mi WNW 9.2 mph - N/A   Clear
3:58 PM 67.3 °F 51.8 °F 58% 29.96 in 10.0 mi WNW 10.4 mph - N/A   Clear
4:58 PM 66.9 °F 51.4 °F 57% 29.95 in 10.0 mi West 9.2 mph - N/A   Clear
5:58 PM 66.0 °F 51.1 °F 59% 29.95 in 10.0 mi WNW 10.4 mph - N/A   Clear
6:58 PM 63.7 °F 50.5 °F 62% 29.96 in 10.0 mi WNW 9.2 mph - N/A   Clear
7:58 PM 59.9 °F 49.6 °F 69% 29.97 in 10.0 mi West 9.2 mph - N/A   Clear
8:56 PM 55.4 °F 48.2 °F 77% 29.97 in 10.0 mi West 8.1 mph - N/A   Clear
9:58 PM 53.8 °F 48.0 °F 81% 29.99 in 10.0 mi West 5.8 mph - N/A   Clear
10:58 PM 52.5 °F 47.8 °F 84% 30.01 in 10.0 mi West 4.6 mph - N/A   Clear
11:58 PM 51.6 °F 47.8 °F 87% 30.03 in 10.0 mi WSW 5.8 mph - N/A   Clear